Baraboo, WI

8:11 PM CDT on May 24, 2017 (GMT -0500)
Baraboo Wisconsin Dells

Weather History for KDLL - March, 2013

Change the Weather History Date:

Monday, March 4, 2013

  Actual Average Record
Temperature  
Mean Temperature 23 °F -  
Max Temperature 32 °F 38 °F 67 °F (1983)
Min Temperature 14 °F 17 °F -11 °F (1978)
Degree Days  
Heating Degree Days 42    
Moisture  
Dew Point 14 °F    
Average Humidity 69    
Maximum Humidity 80    
Minimum Humidity 46    
Precipitation  
Precipitation 0.00 in - - ()
Sea Level Pressure  
Sea Level Pressure 30.04 in    
Wind  
Wind Speed 6 mph (East)    
Max Wind Speed 16 mph    
Max Gust Speed 20 mph    
Visibility 10 miles    
Events Rain    
Averages and records for this station are not official NWS values.
T = Trace of Precipitation, MM = Missing Value Source: NWS Daily Summary

Daily Weather History Graph

Daily Weather History Graph

Search for Another Location

Airport or City:

Trip Planner

Search our weather history database for the weather conditions in past years. The results will help you decide how hot, cold, wet, or windy it might be!

Date:

Astronomy

Mar. 04, 2013 Rise Set
Actual Time 6:30 AM CST 5:52 PM CST
Civil Twilight 6:01 AM CST 6:20 PM CST
Nautical Twilight 5:28 AM CST 6:53 PM CST
Astronomical Twilight 4:55 AM CST 7:27 PM CST
Moon 12:47 AM CST (3/4) 10:26 AM CST (3/4)
Length of Visible Light 12h 19m
Length of Day
11h 22m
Waning Gibbous, 52% of the Moon is Illuminated
Mar 4
Waning Gibbous
Mar 4
Last Quarter
Mar 11
New
Mar 19
First Quarter
Mar 27
Full

Hourly Weather History & Observations

Time (CST) Temp. Windchill Dew Point Humidity Pressure Visibility Wind Dir Wind Speed Gust Speed Precip Events Conditions
12:15 AM 14.0 °F - 5.0 °F 67% 30.06 in 10.0 mi Calm Calm - N/A   Clear
12:35 AM 14.0 °F - 5.0 °F 67% 30.07 in 10.0 mi Calm Calm - N/A   Clear
12:55 AM 14.0 °F - 5.0 °F 67% 30.08 in 10.0 mi Calm Calm - N/A   Clear
1:35 AM 14.0 °F 6.5 °F 5.0 °F 67% 30.08 in 10.0 mi SE 4.6 mph - N/A   Clear
1:55 AM 19.4 °F 11.5 °F 1.4 °F 46% 30.08 in 10.0 mi SE 5.8 mph - N/A   Clear
2:15 AM 19.4 °F 14.3 °F 1.4 °F 46% 30.08 in 10.0 mi SE 3.5 mph - N/A   Clear
2:35 AM 19.4 °F 14.3 °F 3.2 °F 49% 30.08 in 10.0 mi SE 3.5 mph - N/A   Clear
2:55 AM 19.4 °F 12.8 °F 3.2 °F 49% 30.08 in 10.0 mi SE 4.6 mph - N/A   Clear
3:15 AM 17.6 °F 10.7 °F 3.2 °F 53% 30.07 in 10.0 mi ESE 4.6 mph - N/A   Clear
3:35 AM 17.6 °F 10.7 °F 3.2 °F 53% 30.07 in 10.0 mi ESE 4.6 mph - N/A   Clear
3:55 AM 14.0 °F 8.2 °F 3.2 °F 62% 30.06 in 10.0 mi ENE 3.5 mph - N/A   Clear
4:15 AM 14.0 °F - 3.2 °F 62% 30.07 in 10.0 mi Calm Calm - N/A   Clear
4:35 AM 14.0 °F - 5.0 °F 67% 30.06 in 10.0 mi Calm Calm - N/A   Clear
4:55 AM 14.0 °F - 5.0 °F 67% 30.07 in 10.0 mi Calm Calm - N/A   Clear
5:15 AM 14.0 °F 3.9 °F 6.8 °F 73% 30.07 in 10.0 mi ENE 6.9 mph - N/A   Clear
5:35 AM 14.0 °F 2.9 °F 6.8 °F 73% 30.07 in 10.0 mi ENE 8.1 mph - N/A   Clear
5:55 AM 14.0 °F 2.0 °F 6.8 °F 73% 30.07 in 10.0 mi ENE 9.2 mph - N/A   Clear
6:15 AM 14.0 °F 2.9 °F 6.8 °F 73% 30.07 in 10.0 mi East 8.1 mph - N/A   Scattered Clouds
6:35 AM 14.0 °F 2.0 °F 8.6 °F 79% 30.07 in 10.0 mi East 9.2 mph - N/A   Overcast
6:55 AM 14.0 °F 3.9 °F 8.6 °F 79% 30.07 in 10.0 mi ENE 6.9 mph - N/A   Mostly Cloudy
7:15 AM 14.0 °F 3.9 °F 8.6 °F 79% 30.07 in 10.0 mi East 6.9 mph - N/A   Scattered Clouds
7:35 AM 15.8 °F 6.1 °F 8.6 °F 73% 30.07 in 10.0 mi East 6.9 mph - N/A   Mostly Cloudy
7:55 AM 17.6 °F 8.2 °F 8.6 °F 68% 30.07 in 10.0 mi East 6.9 mph - N/A   Scattered Clouds
8:15 AM 17.6 °F 9.3 °F 10.4 °F 73% 30.07 in 10.0 mi ENE 5.8 mph - N/A   Mostly Cloudy
8:35 AM 19.4 °F 11.5 °F 10.4 °F 68% 30.07 in 10.0 mi East 5.8 mph - N/A   Overcast
8:55 AM 21.2 °F 11.7 °F 12.2 °F 68% 30.07 in 10.0 mi East 8.1 mph - N/A   Overcast
9:15 AM 21.2 °F 10.9 °F 12.2 °F 68% 30.07 in 10.0 mi ENE 9.2 mph - N/A   Overcast
9:35 AM 21.2 °F 10.9 °F 12.2 °F 68% 30.07 in 10.0 mi East 9.2 mph - N/A   Overcast
9:55 AM 21.2 °F 10.9 °F 12.2 °F 68% 30.07 in 10.0 mi East 9.2 mph - N/A   Overcast
10:15 AM 23.0 °F 13.9 °F 12.2 °F 63% 30.06 in 10.0 mi East 8.1 mph - N/A   Overcast
10:35 AM 23.0 °F 14.7 °F 14.0 °F 68% 30.07 in 10.0 mi East 6.9 mph - N/A   Overcast
10:55 AM 26.6 °F 18.2 °F 14.0 °F 59% 30.06 in 10.0 mi East 8.1 mph - N/A   Overcast
11:15 AM 28.4 °F 19.1 °F 17.6 °F 64% 30.06 in 10.0 mi East 10.4 mph - N/A   Overcast
11:35 AM 28.4 °F 18.5 °F 17.6 °F 64% 30.05 in 10.0 mi ESE 11.5 mph - N/A   Overcast
11:55 AM 28.4 °F 19.1 °F 17.6 °F 64% 30.05 in 10.0 mi SE 10.4 mph 18.4 mph N/A   Overcast
12:15 PM 28.4 °F 18.5 °F 17.6 °F 64% 30.04 in 10.0 mi ESE 11.5 mph 17.3 mph N/A   Overcast
12:55 PM 30.2 °F 21.3 °F 17.6 °F 60% 30.03 in 10.0 mi East 10.4 mph - N/A   Overcast
1:15 PM 30.2 °F 22.6 °F 17.6 °F 60% 30.02 in 10.0 mi ESE 8.1 mph - N/A   Overcast
1:35 PM 30.2 °F 20.8 °F 17.6 °F 60% 30.02 in 10.0 mi ESE 11.5 mph - N/A   Overcast
1:55 PM 30.2 °F 21.9 °F 17.6 °F 60% 30.02 in 10.0 mi ESE 9.2 mph - N/A   Overcast
2:15 PM 30.2 °F 23.4 °F 19.4 °F 64% 30.02 in 10.0 mi ESE 6.9 mph - N/A   Overcast
2:35 PM 30.2 °F 21.9 °F 19.4 °F 64% 30.00 in 10.0 mi East 9.2 mph - N/A   Overcast
3:15 PM 30.2 °F 21.3 °F 19.4 °F 64% 30.00 in 10.0 mi ESE 10.4 mph - N/A   Light Freezing Rain
3:35 PM 32.0 °F 21.2 °F 19.4 °F 60% 29.99 in 10.0 mi ESE 16.1 mph 19.6 mph N/A Rain Light Rain
3:55 PM 32.0 °F 23.0 °F 21.2 °F 64% 29.99 in 10.0 mi East 11.5 mph 17.3 mph N/A   Overcast
4:15 PM 30.2 °F 21.3 °F 21.2 °F 69% 29.99 in 10.0 mi East 10.4 mph 16.1 mph N/A   Overcast
4:35 PM 30.2 °F 20.8 °F 21.2 °F 69% 29.99 in 10.0 mi East 11.5 mph - N/A   Overcast
4:55 PM 30.2 °F 20.8 °F 23.0 °F 75% 29.99 in 10.0 mi East 11.5 mph 18.4 mph N/A   Overcast
5:15 PM 30.2 °F 19.8 °F 23.0 °F 75% 29.99 in 10.0 mi East 13.8 mph - N/A   Overcast
5:35 PM 30.2 °F 19.8 °F 23.0 °F 75% 29.99 in 10.0 mi East 13.8 mph 17.3 mph N/A   Overcast
5:55 PM 30.2 °F 18.9 °F 23.0 °F 75% 29.99 in 10.0 mi East 16.1 mph 19.6 mph N/A   Overcast
6:15 PM 28.4 °F 19.1 °F 23.0 °F 80% 30.00 in 10.0 mi East 10.4 mph - N/A   Overcast
6:35 PM 28.4 °F 17.5 °F 23.0 °F 80% 30.00 in 10.0 mi East 13.8 mph - N/A   Overcast
6:55 PM 28.4 °F 18.5 °F 21.2 °F 74% 30.02 in 10.0 mi East 11.5 mph - N/A   Overcast
7:15 PM 28.4 °F 18.5 °F 21.2 °F 74% 30.02 in 10.0 mi East 11.5 mph 17.3 mph N/A   Overcast
7:55 PM 28.4 °F 19.1 °F 21.2 °F 74% 30.03 in 10.0 mi East 10.4 mph 17.3 mph N/A   Overcast
8:15 PM 28.4 °F 19.1 °F 21.2 °F 74% 30.03 in 10.0 mi East 10.4 mph 17.3 mph N/A   Overcast
8:35 PM 28.4 °F 18.5 °F 21.2 °F 74% 30.04 in 10.0 mi East 11.5 mph - N/A   Overcast
8:55 PM 28.4 °F 19.1 °F 21.2 °F 74% 30.04 in 10.0 mi East 10.4 mph - N/A   Overcast
9:15 PM 26.6 °F 16.2 °F 21.2 °F 80% 30.04 in 10.0 mi East 11.5 mph 18.4 mph N/A   Overcast
9:35 PM 26.6 °F 16.8 °F 21.2 °F 80% 30.04 in 10.0 mi East 10.4 mph - N/A   Overcast
9:55 PM 26.6 °F 16.2 °F 21.2 °F 80% 30.03 in 10.0 mi East 11.5 mph - N/A   Overcast
10:15 PM 26.6 °F 16.8 °F 21.2 °F 80% 30.03 in 10.0 mi East 10.4 mph 17.3 mph N/A   Overcast
10:35 PM 26.6 °F 15.7 °F 21.2 °F 80% 30.03 in 10.0 mi East 12.7 mph - N/A   Overcast
10:55 PM 26.6 °F 15.2 °F 21.2 °F 80% 30.03 in 10.0 mi East 13.8 mph - N/A   Overcast
11:15 PM 26.6 °F 17.5 °F 21.2 °F 80% 30.03 in 10.0 mi East 9.2 mph - N/A   Overcast
11:35 PM 26.6 °F 16.2 °F 21.2 °F 80% 30.03 in 10.0 mi East 11.5 mph 17.3 mph N/A   Overcast
11:55 PM 26.6 °F 17.5 °F 21.2 °F 80% 30.02 in 10.0 mi East 9.2 mph - N/A   Overcast